Torna al catalogo

STARLINK-5793

AttivoComunicazioniVLEO
NORAD 56038·PAYLOAD·🇺🇸 United States

Lanciato Mar 24, 2023 da Cape Canaveral Space Force Station

Loading…

Prossimi Passaggi (prossime 24 ore)

TLE

AggiornatoSource: CelesTrak SupGP

Epoca: Sep 14, 2026, 22:15 UTC

1 56038C 23042BE  26257.92756944  .00048454  00000+0  17551-2 0  2573
2 56038  43.0015  56.8470 0001433 274.5463  59.1133 15.27553260    18

Traccia STARLINK-5793 in tempo reale con AllMySat

Download on the App Store